Regional Weather Roundup
Issued by NWS

Home | Current Version | Previous Version | Graphics & Text | Print | Product List | Glossary On
Versions: 1 2 3 4 5 6 7 8 9 10 11 12 13 14 15 16 17 18 19 20 21 22 23 24 25 26 27 28 29 30 31 32 33 34 35 36 37 38 39 40 41 42 43 44 45 46 47 48 49 50
000
ASUS45 KSLC 300510
RWRUT

UTAH REGIONAL WEATHER ROUNDUP
NATIONAL WEATHER SERVICE SALT LAKE CITY UT
1100 PM MDT MON JUN 29 2015

UTZ001>011-023>025-300600-

NORTHERN UTAH

CITY           SKY/WX    TMP DP  RH WIND       PRES   REMARKS
BRIGHAM CITY   MOCLDY    84  58  40 CALM      30.01R
HILL AFB       MOCLDY    82  50  31 SE16      30.06R
LOGAN          CLEAR     74  61  63 CALM      30.04R
OGDEN          MOCLDY    83  52  34 S7        30.02R
PROVO AIRPORT  MOCLDY    81  50  34 CALM      30.06S
SALT LAKE CITY MOCLDY    91  50  24 SE10      30.01R
VERNAL         PTCLDY    79  45  29 NW6       30.12R
WENDOVER       CLOUDY    93  43  17 NW20G25   30.02R
HEBER CITY     MOCLDY    70  50  49 CALM      30.17R
WEST JORDAN    CLEAR     84  48  28 S9        30.06R

$$

UTZ012>022-026-027-300600-

SOUTHERN/CENTRAL UTAH

CITY           SKY/WX    TMP DP  RH WIND       PRES   REMARKS
BLANDING       CLEAR     74  43  33 N7        30.23R
BRYCE CANYON   MOCLDY    63  42  46 W9        30.37R
CEDAR CITY     CLOUDY    79  46  31 SW10      30.20R
DELTA          MOCLDY    82  42  23 SW7       30.08R
HANKSVILLE     MOCLDY    88  37  16 NW5       30.03S
MILFORD        MOCLDY    80  46  30 SW10      30.10R
MOAB/CYNLANDS  CLEAR     83  41  22 NW12      30.00R
PRICE          MOCLDY    76  37  24 W7        30.18R
ST GEORGE      MOCLDY    93  48  21 SE18G26   29.99S HX  90
KANAB          MOCLDY    79  52  38 SE3       30.20R

$$

REGIONAL REPORTS     COLORADO/ARIZONA

CITY           SKY/WX    TMP DP  RH WIND       PRES   REMARKS
CRAIG, CO      CLEAR     62  45  53 CALM      30.24R
GRAND JUNCTION CLEAR     82  41  23 E3        30.06R
RIFLE          CLEAR     76  42  29 E6        30.15R
MONTROSE       CLEAR     80  47  31 SE5       30.18R
CORTEZ         CLEAR     69  49  48 E6        30.18R
PAGE, AZ       CLOUDY    91  46  21 NW9G17    30.04R
GRAND CANYON   CLOUDY    65  56  72 W3        30.32R
KINGMAN        MOCLDY    81  54  39 SW5       30.02R
FLAGSTAFF      CLOUDY    60  54  80 CALM      30.35R

$$

REGIONAL REPORTS    NEVADA/IDAHO/WYOMING

CITY           SKY/WX    TMP DP  RH WIND       PRES   REMARKS
LAS VEGAS, NV  MOCLDY   102  49  16 S7        29.82R HX  99
ELY            MOCLDY    78  38  23 VRB6      30.21R
ELKO           LGT RAIN  84  47  27 E6        30.13R
POCATELLO, ID  PTCLDY    71  64  78 W17       30.13R
BURLEY         CLOUDY    89  42  19 W17       30.06R
EVANSTON, WY   MOCLDY    72  44  36 E13       30.30R
ROCK SPRINGS   MOCLDY    76  35  22 E9        30.27R
KEMMERER       MOCLDY    73  36  25 CALM      30.32R

$$


USA.gov is the U.S. government's official web portal to all federal, state and local government web resources and services.